1st Responders/1st Detectors/Storm Spotters Weather Summary for Scott County, KY

Forecast Maps


Reg. NEXRAD Animation


National Fire Danger: Day 1 & 2 Map

Current NWS Watch/Warnings

SPC Convective Day 1 Outlook


Day 2 Outlook

(Click images to enlarge|Page will refresh every 5 minutes)
UK Ag. Weather Center Desktop Severe Weather Service[HERE]
Scott County, KY Hazardous Weather Outlook Webcast
(9 AM to 9 PM Mon-Fri)
[Fast]
[Dial-up]


UKAWC 1st Detectors/1st Responders Precision Weather Forecast For SCOTT County, Kentucky
(based on the NWS County Digital Forecast)

ISSUED AT 18:00 UTC ON SUNDAY JUN 24 2018
DAY SUNDAY
EDT 3HR 3P 4P 5P 6P 7P
MAX/MIN -- -- -- -- 85°
TEMP 85° 85° 85° 85° 83°
SKY COVER 50% 48% 46% 41% 36%
Clouds
DEW PT 67° 67° 67° 67° 68°
RH 57% 54% 55% 56% 60%
POP 12HR -- -- -- -- --
RAIN/SNOW (liq.equ) -- -- -- -- --
SNOWFALL -- -- -- -- --
WIND SPEED(MPH) 8 8 7 7 6
WIND Gust(MPH) 13 13 10 9 7
WIND DIR W W W W NW
DEW -- -- -- -- --
HeatIndex 88 89 89 88 87
Rain Showers -- -- -- -- --
Thunder Storm -- -- -- -- --
WIND CHILL -- -- -- -- --
SPRAY COND
DRY COND
LIVESTOCK HEATSTRESS 78.80 78.37 78.52 78.66 77.68



DAY MONDAY TUESDAY WEDNESDAY THURSDAY FRIDAY SATURDAY
EDT 6HR 8P 9P 10P 11P MIDN 1A 2A 3A 4A 5A 6A 7A 8A 9A 10A 11A NOON 1P 2P 3P 4P 5P 6P 7P 8P 9P 10P 11P MIDN 1A 2A 5A 8A 11A 2P 5P 8P 2A 8A 2P 8P 2A 8A 2P 8P 2A 8A 2P 8P 2A 8A 2P 8P
MAX/MIN -- -- -- -- -- -- -- -- -- -- -- -- 67° -- -- -- -- -- -- -- -- -- -- 81° -- -- -- -- -- -- -- -- 65° -- -- 85° -- -- 72° 85° -- -- 70° 90° -- -- 72° 90° -- -- 72° 90° --
TEMP 81° 77° 74° 72° 70° 70° 68° 67° 67° 67° 67° 67° 68° 70° 74° 76° 79° 79° 81° 81° 81° 81° 81° 81° 79° 76° 74° 70° 70° 68° 67° 65° 70° 79° 85° 85° 83° 72° 74° 85° 81° 72° 74° 88° 83° 74° 74° 90° 85° 74° 76° 90° 83°
SKY COVER 30% 36% 41% 46% 50% 54% 58% 63% 69% 75% 72% 69% 66% 69% 72% 75% 74% 74% 73% 69% 66% 62% 57% 53% 48% 48% 49% 49% 54% 60% 65% 64% 69% 46% 62% 62% 67% 57% 61% 61% 53% 34% 32% 38% 37% 31% 28% 27% 27% 27% 27% 33% 37%
Clouds
DEW PT 70° 68° 67° 67° 67° 67° 67° 65° 65° 65° 65° 65° 65° 67° 67° 67° 67° 67° 67° 67° 67° 67° 67° 67° 67° 67° 67° 67° 65° 65° 65° 63° 65° 70° 72° 72° 72° 70° 70° 72° 72° 70° 70° 72° 72° 70° 70° 74° 74° 70° 72° 72° 72°
RH 68% 73% 78% 83% 86% 89% 93% 93% 93% 96% 97% 93% 89% 87% 81% 74% 68% 66% 64% 62% 62% 62% 62% 64% 68% 76% 78% 86% 87% 90% 90% 93% 87% 71% 63% 62% 71% 90% 84% 65% 71% 90% 87% 58% 69% 86% 90% 59% 71% 87% 87% 55% 69%
POP 12HR 14% -- -- -- -- -- -- -- -- -- -- -- 51% -- -- -- -- -- -- -- -- -- -- -- 55% -- -- -- -- -- -- -- 12% -- -- -- 37% -- 42% -- 51% -- 22% -- 19% -- 7% -- 4% -- 4% -- 13%
RAIN/SNOW (liq.equ) 0.00in -- -- -- -- -- 0.00in -- -- -- -- -- 0.02in -- -- -- -- -- 0.01in -- -- -- -- -- 0.02in -- -- -- -- -- 0.00in -- 0.00in -- 0.02in -- 0.05in -- -- -- -- -- -- -- -- -- -- -- -- -- -- -- --
SNOWFALL 0in -- -- -- -- -- 0in -- -- -- -- -- 0in -- -- -- -- -- 0in -- -- -- -- -- 0in -- -- -- -- -- 0in -- 0in -- 0in -- 0in -- -- -- -- -- -- -- -- -- -- -- -- -- -- -- --
WIND SPEED(MPH) 5 2 1 1 1 2 2 2 2 2 2 5 5 5 6 6 6 7 7 7 6 6 6 6 6 6 5 5 5 2 2 2 5 7 7 7 7 6 9 14 10 6 6 6 7 5 5 6 5 2 2 6 5
WIND DIR NW N N NE NE E E E NE NE NE NE E E E E E E E E E E E E E E E E E E E E SE S S S S S S SW SW W SW W W SW S SW SW S S S S
HeatIndex 84 77 74 72 70 70 68 67 67 67 67 67 68 70 74 76 79 82 83 85 85 85 85 83 79 76 74 70 70 68 67 65 70 83 92 92 88 72 74 93 86 72 74 97 90 74 74 99 93 74 76 97 90
Rain Showers -- -- -- -- -- Slight Chance Slight Chance Chance Chance Chance Chance Chance Chance Chance Chance Likely Likely Chance Chance Chance Chance Slight Chance Slight Chance -- -- -- -- -- -- -- -- -- Slight Chance Slight Chance Chance Chance Chance Chance Chance Chance Slight Chance -- -- Slight Chance -- -- -- -- -- -- -- -- --
Thunder Storm -- -- -- -- -- Slight Chance Slight Chance Slight Chance Slight Chance Slight Chance Slight Chance Slight Chance Slight Chance Slight Chance Slight Chance Slight Chance Slight Chance Slight Chance Chance Chance Chance Slight Chance Slight Chance -- -- -- -- -- -- -- -- -- Slight Chance Slight Chance Chance Chance Chance Chance Chance Chance Slight Chance -- -- Slight Chance -- -- -- -- -- -- -- -- --
WIND CHILL -- -- -- -- -- -- -- -- -- -- -- -- -- -- -- -- -- -- -- -- -- -- -- -- -- -- -- -- -- -- -- -- -- -- -- -- -- -- -- -- -- -- -- -- -- -- -- -- -- -- -- -- --
SPRAY COND
DRY COND
LIVESTOCK HEATSTRESS 77.09 74.30 72.16 70.77 69.14 69.32 67.65 66.68 66.68 66.82 66.86 66.68 67.44 69.20 72.41 73.54 75.44 75.22 76.60 76.36 76.36 76.36 76.36 76.60 75.44 73.73 72.16 69.14 69.20 67.49 66.55 64.76 69.20 75.78 79.67 79.52 79.14 71.27 72.66 79.96 77.46 71.27 72.91 81.25 78.87 72.83 73.16 82.96 80.82 72.91 74.77 82.28 78.87

Click on individual weather variable above in left-hand column (ie., TEMP, RH, QPF 12HR) to view state forecast maps






NWS 48 Hr. Forecast Maps,

Regional Hourly Observations For SCOTT County, Kentucky
Issued at 200 PM EDT SUN JUN 24 2018
...CENTRAL KENTUCKY...
  
CITY           SKY/WX    TMP DP  RH WIND       PRES   REMARKS
MT STERLING*     N/A     82  68  61 NW8G17    30.00S                  
FLEMING/MASON* PTSUNNY   80  64  59 NW8G18    29.99S                  
DANVILLE*        N/A     86  68  54 NW8       30.01S                  
LEXINGTON        N/A     84  68  58 W9        29.99S                  
6HR MIN TEMP:  71; 6HR MAX TEMP:  84;                                

FRANKFORT        N/A     83  67  58 VRB7G17   29.97S                  
6HR MIN TEMP:  71; 6HR MAX TEMP:  85;                                

LOUISVILLE     PTSUNNY   86  67  52 W8        29.97S                  
6HR MIN TEMP:  74; 6HR MAX TEMP:  86;                                

LEBANON*         N/A     82  68  61 W8        29.99S                  
GLASGOW*       PTSUNNY   88  71  57 W6        29.97F HX  93           
BOWLING GREEN    N/A     89  74  60 MISG      29.96F HX  98           
6HR MIN TEMP:  76; 6HR MAX TEMP:  89;                                


Current NOWCAST not available:
Nowcasts are not issued routinely during fair weather. Only when
precipitation or other significant weather is occuring in this county will these
forecasts be issued. Currently, there is no short term forecast in effect.


Fire Weather Forecast For SCOTT County, KY
Provided by the National Weather Service:

Issued at: Sun Jun 24 14:05:01 EDT 2018


                      Today        Tonight      Mon          

CLOUD COVER           PCldy        PCldy        MCldy        
PRECIP TYPE           NONE         tstms        tstms        
CHANCE PRECIP (%)     0            30           30           
TEMP (24H TREND)      86 (+4)      66 (0)       82           
RH % (24H TREND)      52 (-6)      100 (0)      60           
20FTWND-VAL/AM(MPH)   Lgt/Var                   Lgt/Var      
20FTWND-RDG/PM(MPH)   W  6         Lgt/Var      Lgt/Var      
PRECIP AMOUNT         0.00         0.03         0.12         
MIXING HGT(FT-AGL/MSL)6709                      5726         
TRANSPORT WND (MPH)   W 14                      NE 14        
VENT RATE (KT-FT)     97590                     57260        
DISPERSION            Excellent                 Good         
DSI                   SLGT UNSTBL  SLGT UNSTBL  SLGT UNSTBL  
LAL                   3            4            4            
HAINES INDEX          3            3            3            
ADI EARLY             45 GEN GOOD  4 VERY POOR  26 FAIR      
ADI LATE              61 GOOD      6 VERY POOR  30 FAIR      
MAX LVORI EARLY       9            6            5            
MAX LVORI LATE        1            8            3            

REMARKS...ADI IS ATMOSPHERIC DISPERSION INDEX BY LAVDAS.        
LVORI IS LOW VISIBILITY OCCURRENCE RISK INDEX.

.TUESDAY...Mostly cloudy. A 50 percent chance of showers and
thunderstorms. Lows in the upper 60s. Highs in the mid 80s.
Northeast winds around 5 mph. 
.WEDNESDAY...Mostly cloudy. A 50 percent chance of showers and
thunderstorms. Lows in the lower 70s. Highs in the mid 80s. South
winds around 5 mph. 
.THURSDAY...Partly cloudy. Lows in the lower 70s. Highs around
90. West winds 5 to 10 mph. 
.FRIDAY...Partly cloudy. Lows in the lower 70s. Highs in the
lower 90s. Southwest winds up to 5 mph. 
.SATURDAY...Partly cloudy. Lows in the lower 70s. Highs in the
lower 90s. South winds up to 5 mph. 

SPC's Fire Weather Web Tool (Excellent!), SPC's Fire Weather Outlooks, NWS Fire Weather WEB, Fire Danger Class Map,
Keetch-Byram Drought Index, ROMAN Web, Haines Index ,
WFAS's 10-hr Dead Fuel Moist., WFAS's 100-hr Dead Fuel Moist., Probablity of Ignition, Visual blackness Map, Palmer Drought Index, HPC's Rainfall Forecast Maps


Hazardous Weather Outlook For SCOTT County, Kentucky
320 AM EDT Sun Jun 24 2018 /220 AM CDT Sun Jun 24 2018/

 DAY ONE  Today and Tonight.

Scattered to numerous storms will be possible late this afternoon
into tonight as a weather system approaches from the west. Gusty
winds, small hail, and heavy downpours will accompany the strongest
storms.

 DAYS TWO THROUGH SEVEN  Monday through Saturday.

Scattered storms are expected each day. Heavy downpours, gusty 
winds, and small hail will accompany the strongest storms.

 SPOTTER INFORMATION STATEMENT  

Spotter activation is not expected today.

Latest SCOTT County, Kentucky Watches, Warnings and Advisories.
Additional Drought Info.: UKAWC Drought Page, Kentucky Drought Watch


7-Day Forecast For SCOTT County, KY

THIS AFTERNOON
Partly cloudy. Highs in the mid 80s. West winds 5 to 10 mph.

TONIGHT
Partly cloudy with a 20 percent chance of showers and thunderstorms. Lows in the mid 60s. North winds up to 5 mph.

MONDAY
Partly cloudy with a 30 percent chance of showers and thunderstorms. Highs in the lower 80s. East winds up to 5 mph.

MONDAY NIGHT
Partly cloudy. Lows in the mid 60s. East winds around 5 mph.

TUESDAY
Partly cloudy with a 40 percent chance of showers and thunderstorms. Highs in the mid 80s. South winds 5 to 10 mph.

TUESDAY NIGHT
Partly cloudy with a 40 percent chance of showers and thunderstorms. Lows in the lower 70s.

WEDNESDAY
Partly cloudy with a 50 percent chance of showers and thunderstorms. Highs in the mid 80s.

WEDNESDAY NIGHT
Partly cloudy with a 20 percent chance of showers and thunderstorms. Lows in the lower 70s.

THURSDAY
Partly cloudy with a 20 percent chance of showers and thunderstorms. Highs around 90.

THURSDAY NIGHT
Partly cloudy. Lows in the lower 70s.

FRIDAY
Partly cloudy. Highs in the lower 90s.

FRIDAY NIGHT
Partly cloudy. Lows in the lower 70s.

SATURDAY
Partly cloudy. Highs in the lower 90s.

Ag Weather Center, Department of Biosystems & Agricultural Engineering, University of Kentucky